[[{"header":{"parameterUnit":"m.s-1","parameterCategory":1,"la1":30.2991,"la2":30.254,"lo1":-89.0895,"lo2":-89.0444,"dy":0.0017,"dx":0.0017,"nx":28,"ny":28,"refTime":"2024-12-01T09:00:00:Z","depth":0,"parameterNumber":2,"parameterNumberName":"U-component_of_WINDS"},"data":[0,0,0,0,0,0,0,0,0,0,0,0,0,0,0,0,0,0,0,0,0,0,0,0,0,0,0,0,0,0,0,0,0,0,0,0,0,0,0,0,0,0,0,0,0,0,0,0,0,0,0,0,0,0,0,0,0,0,-1.7656,-1.7657,0,-1.7678,-1.7678,-1.7678,-1.7619,-1.7617,-1.7615,-1.7613,-1.7636,-1.7639,-1.7641,0,0,0,0,0,0,0,0,0,0,0,0,0,-1.7564,-1.7567,-1.7656,-1.7657,-1.7657,-1.7678,-1.7678,-1.7678,-1.7619,-1.7617,-1.7615,-1.7613,-1.7636,-1.7638,-1.7641,0,0,0,0,0,0,0,0,0,0,0,0,0,-1.7597,-1.7567,-1.7656,-1.763,-1.7628,-1.7678,-1.7678,-1.7678,-1.762,-1.7617,-1.7614,-1.7612,-1.7635,-1.7638,-1.7642,-1.7718,0,0,-1.7652,-1.7654,0,0,0,0,0,0,0,0,-1.7595,-1.76,-1.7634,-1.7632,-1.763,-1.7643,-1.7654,-1.7692,-1.762,-1.7623,-1.7613,-1.761,-1.7641,-1.7644,-1.7654,-1.7719,-1.772,-1.7652,-1.7655,-1.7656,-1.7657,0,0,0,0,0,0,0,-1.7593,-1.7599,-1.7665,-1.7634,-1.7632,-1.7617,-1.7619,-1.7661,-1.7647,-1.7622,-1.7618,-1.7621,-1.7639,-1.765,-1.7654,-1.772,-1.7652,-1.7655,-1.7658,-1.7659,-1.7847,-1.785,0,0,0,0,0,0,-1.7594,-1.7598,-1.7664,-1.7665,-1.7605,-1.7621,-1.7623,-1.7641,-1.7646,-1.7644,-1.7624,-1.7619,-1.7646,-1.765,-1.7654,-1.7742,-1.7656,-1.7659,-1.7661,-1.7844,-1.7848,-1.7851,0,0,0,0,0,0,-1.7592,-1.7601,-1.7663,-1.763,-1.7637,-1.7625,-1.7647,-1.7643,-1.7654,-1.7647,-1.7645,-1.7638,-1.7644,-1.7649,-1.7702,-1.7742,-1.7661,-1.7664,-1.7841,-1.7845,-1.7849,-1.792,0,0,0,0,0,0,-1.759,-1.76,-1.763,-1.7632,-1.7639,-1.7711,-1.7649,-1.7646,-1.766,-1.7654,-1.766,-1.7658,-1.7642,-1.7697,-1.7705,-1.7746,-1.7667,-1.7837,-1.7843,-1.7848,-1.7914,-1.7926,-1.7937,0,0,0,0,0,-1.7587,-1.7649,-1.7631,-1.764,-1.7675,-1.7713,-1.7718,-1.7698,-1.7664,-1.7693,-1.7688,-1.7658,-1.7737,-1.7703,-1.7712,-1.7754,-1.7835,-1.7841,-1.7848,-1.7909,-1.7924,-1.7936,0,0,0,0,0,0,-1.7653,-1.7649,-1.7629,-1.7694,-1.7704,-1.7703,-1.7739,-1.7715,-1.7735,-1.7728,-1.7703,-1.7704,-1.7761,-1.7763,-1.7725,-1.7827,-1.778,-1.7789,-1.7823,-1.7837,-1.7849,-1.7846,-1.767,0,0,0,0,0,-1.7676,-1.7707,-1.7701,-1.7759,-1.7765,-1.7752,-1.7767,-1.7751,-1.7761,-1.7765,-1.7764,-1.7775,-1.7801,-1.782,-1.7845,-1.7914,-1.7914,-1.7947,-1.7959,-1.7968,-1.7975,-1.801,-1.8024,-1.7872,-1.7872,-1.7872,0,0,-1.7722,-1.7723,-1.7745,-1.7772,-1.7778,-1.781,-1.7756,-1.7793,-1.7816,-1.7771,-1.7819,-1.7819,-1.7829,-1.789,-1.7917,-1.7893,-1.8017,-1.7976,-1.7984,-1.7986,-1.8018,-1.8032,-1.8045,-1.7877,-1.7876,-1.7875,0,0,-1.7822,-1.7827,-1.7874,-1.7881,-1.789,-1.788,-1.7892,-1.7894,-1.7892,-1.7941,-1.7906,-1.7934,-1.7982,-1.7989,-1.8,-1.8101,-1.8074,-1.811,-1.8169,-1.8203,-1.8215,-1.8225,-1.8259,-1.8272,-1.8118,-1.8118,-1.8118,0,-1.7878,-1.7924,-1.7902,-1.794,-1.7953,-1.7912,-1.7959,-1.7968,-1.7985,-1.7994,-1.7968,-1.8025,-1.8029,-1.809,-1.8115,-1.8125,-1.8136,-1.8109,-1.8215,-1.8225,-1.8235,-1.8267,-1.828,-1.8122,-1.8122,-1.8121,-1.8121,0,-1.7992,-1.8025,-1.8062,-1.8078,-1.8095,-1.8138,-1.8121,-1.8141,-1.8123,-1.8116,-1.8165,-1.8169,-1.8192,-1.8206,-1.8189,-1.8264,-1.8249,-1.8219,-1.8171,-1.8254,-1.8283,-1.8296,-1.8128,-1.8127,-1.8125,-1.8124,0,0,-1.8134,-1.8136,-1.815,-1.8156,-1.8163,-1.8187,-1.8228,-1.825,-1.8267,-1.828,-1.8313,-1.8353,-1.8325,-1.8337,-1.8321,-1.8351,-1.8428,-1.8317,-1.8317,-1.8336,-1.8508,-1.8529,-1.8543,-1.841,-1.8413,-1.8415,-1.8506,0,-1.8231,-1.8299,-1.8279,-1.8348,-1.8377,-1.8338,-1.8373,-1.8381,-1.8376,-1.8399,-1.8393,-1.8421,-1.8383,-1.839,-1.8418,-1.8413,-1.8462,-1.8406,-1.8439,-1.844,-1.8435,-1.8559,-1.8582,-1.8668,-1.8518,-1.852,-1.8522,0,-1.8352,-1.8368,-1.844,-1.8439,-1.8451,-1.8483,-1.85,-1.8524,-1.8532,-1.8525,-1.8538,-1.8515,-1.8554,-1.8507,-1.856,-1.8522,-1.8534,-1.8534,-1.8537,-1.8537,-1.8485,-1.8561,-1.8695,-1.8708,-1.854,-1.8539,-1.8537,0,-1.8446,-1.8486,-1.8533,-1.8539,-1.8541,-1.8564,-1.8566,-1.8571,-1.8585,-1.8601,-1.8609,-1.863,-1.8641,-1.8657,-1.864,-1.8608,-1.8694,-1.8646,-1.8689,-1.8689,-1.8707,-1.8706,-1.8843,-1.8719,-1.8719,-1.8719,-1.8719,0,-1.8554,-1.8599,-1.8574,-1.8603,-1.8651,-1.8628,-1.8676,-1.8674,-1.8679,-1.8706,-1.8675,-1.8701,-1.8678,-1.8702,-1.869,-1.8734,-1.874,-1.8735,-1.873,-1.8736,-1.8736,-1.8742,-1.8735,-1.8722,-1.8722,-1.8721,-1.872,0,-1.8666,-1.8652,-1.87,-1.8697,-1.8697,-1.8733,-1.873,-1.8757,-1.8749,-1.8783,-1.879,-1.8777,-1.8804,-1.8789,-1.8817,-1.8808,-1.8864,-1.8853,-1.8861,-1.8858,-1.89,-1.8895,-1.9044,-1.9061,-1.8929,-1.893,-1.8931,0,-1.8735,-1.8768,-1.8768,-1.8784,-1.8787,-1.8813,-1.8826,-1.8805,-1.882,-1.8831,-1.8855,-1.8879,-1.8896,-1.8941,-1.8934,-1.8954,-1.8942,-1.8993,-1.8945,-1.8949,-1.8939,-1.8937,-1.8939,-1.9001,-1.9003,-1.9004,-1.9005,0,-1.8858,-1.8849,-1.8869,-1.8887,-1.8904,-1.8917,-1.8928,-1.8942,-1.8921,-1.8939,-1.8965,-1.8979,-1.9006,-1.903,-1.9047,-1.9048,-1.9023,-1.9021,-1.9031,-1.9036,-1.9038,-1.9035,-1.8885,-1.9017,-1.9016,-1.9015,-1.9014,-1.9014,-1.8949,-1.8975,-1.8979,-1.9002,-1.9008,-1.9018,-1.9041,-1.9036,-1.9057,-1.9077,-1.9063,-1.9093,-1.9099,-1.9119,-1.9124,-1.9147,-1.9127,-1.9143,-1.9146,-1.915,-1.9154,-1.9037,-1.9151,-1.915,-1.915,-1.915,-1.9149,0,-1.9068,-1.9068,-1.909,-1.9105,-1.9123,-1.9097,-1.9107,-1.9124,-1.9151,-1.9158,-1.9175,-1.9204,-1.9226,-1.9221,-1.9241,-1.926,-1.9249,-1.9266,-1.9263,-1.9263,-1.9173,-1.916,-1.9275,-1.9275,-1.9275,-1.9275,-1.9275,-1.9275,-1.9132,-1.9174,-1.9166,-1.921,-1.921,-1.9239,-1.9246,-1.9255,-1.926,-1.9294,-1.9312,-1.9308,-1.931,-1.9329,-1.9348,-1.9346,-1.9353,-1.9374,-1.9368,-1.9283,-1.927,-1.9258,-1.9246,-1.9377,-1.9377,-1.9456,-1.9457,-1.9457]},{"header":{"parameterUnit":"m.s-1","parameterCategory":1,"la1":30.2991,"la2":30.254,"lo1":-89.0895,"lo2":-89.0444,"dy":0.0017,"dx":0.0017,"nx":28,"ny":28,"refTime":"2024-12-01T09:00:00:Z","depth":0,"parameterNumber":3,"parameterNumberName":"V-component_of_WINDS"},"data":[0,0,0,0,0,0,0,0,0,0,0,0,0,0,0,0,0,0,0,0,0,0,0,0,0,0,0,0,0,0,0,0,0,0,0,0,0,0,0,0,0,0,0,0,0,0,0,0,0,0,0,0,0,0,0,0,0,0,-3.5912,-3.5913,0,-3.5965,-3.5965,-3.5966,-3.5906,-3.5903,-3.5901,-3.5899,-3.595,-3.5953,-3.5957,0,0,0,0,0,0,0,0,0,0,0,0,0,-3.5756,-3.5759,-3.5912,-3.5913,-3.5913,-3.5965,-3.5965,-3.5966,-3.5906,-3.5903,-3.5901,-3.5898,-3.5949,-3.5953,-3.5957,0,0,0,0,0,0,0,0,0,0,0,0,0,-3.5817,-3.576,-3.5912,-3.589,-3.5888,-3.5964,-3.5965,-3.5966,-3.5907,-3.5903,-3.59,-3.5897,-3.5947,-3.5952,-3.5958,-3.6057,0,0,-3.5973,-3.5976,0,0,0,0,0,0,0,0,-3.5814,-3.5823,-3.5892,-3.5891,-3.589,-3.5925,-3.5929,-3.5997,-3.5908,-3.59,-3.5899,-3.5895,-3.5944,-3.5949,-3.5967,-3.606,-3.6062,-3.5974,-3.5977,-3.5979,-3.5981,0,0,0,0,0,0,0,-3.581,-3.5821,-3.5933,-3.5893,-3.5892,-3.5876,-3.5881,-3.5941,-3.594,-3.59,-3.5896,-3.5903,-3.5943,-3.5962,-3.5967,-3.6063,-3.5974,-3.5978,-3.5982,-3.5984,-3.6238,-3.6241,0,0,0,0,0,0,-3.5808,-3.5817,-3.5931,-3.5934,-3.5843,-3.5881,-3.5887,-3.5917,-3.5939,-3.594,-3.5906,-3.59,-3.5955,-3.5961,-3.5969,-3.6086,-3.5979,-3.5984,-3.5987,-3.6234,-3.6239,-3.6243,0,0,0,0,0,0,-3.5805,-3.5819,-3.5929,-3.5875,-3.5887,-3.5888,-3.5922,-3.592,-3.5939,-3.5944,-3.5943,-3.5926,-3.5952,-3.5962,-3.6035,-3.6086,-3.5986,-3.5991,-3.623,-3.6236,-3.6241,-3.6321,0,0,0,0,0,0,-3.5801,-3.5818,-3.5857,-3.5876,-3.5891,-3.5996,-3.5925,-3.5924,-3.5948,-3.5941,-3.5962,-3.5962,-3.595,-3.6028,-3.6041,-3.6092,-3.5995,-3.6225,-3.6232,-3.6239,-3.6313,-3.6328,-3.6341,0,0,0,0,0,-3.5796,-3.5878,-3.586,-3.5874,-3.5939,-3.5999,-3.6007,-3.5993,-3.5953,-3.5991,-3.5994,-3.5962,-3.6079,-3.6036,-3.605,-3.6103,-3.6222,-3.623,-3.6238,-3.6307,-3.6325,-3.634,0,0,0,0,0,0,-3.5864,-3.588,-3.586,-3.5951,-3.5974,-3.5989,-3.6037,-3.6012,-3.6047,-3.6039,-3.6018,-3.6023,-3.6102,-3.611,-3.6062,-3.62,-3.6144,-3.6155,-3.6192,-3.6209,-3.6222,-3.6218,-3.5999,0,0,0,0,0,-3.589,-3.5938,-3.5949,-3.6027,-3.604,-3.6037,-3.6062,-3.6049,-3.6072,-3.6081,-3.609,-3.6112,-3.6154,-3.6182,-3.6221,-3.6315,-3.6317,-3.6358,-3.6372,-3.6383,-3.6393,-3.6441,-3.6458,-3.6269,-3.6269,-3.6269,0,0,-3.5943,-3.5957,-3.5989,-3.6041,-3.6058,-3.6107,-3.6045,-3.61,-3.6136,-3.6089,-3.6159,-3.6166,-3.619,-3.6274,-3.6311,-3.6283,-3.6445,-3.6393,-3.6402,-3.6406,-3.6451,-3.6469,-3.6485,-3.6275,-3.6274,-3.6273,0,0,-3.6064,-3.6081,-3.6148,-3.6166,-3.6192,-3.6189,-3.6205,-3.6224,-3.6227,-3.6297,-3.6263,-3.6304,-3.6378,-3.6395,-3.6414,-3.6542,-3.6513,-3.6555,-3.6626,-3.6673,-3.6688,-3.6701,-3.6745,-3.6761,-3.6565,-3.6565,-3.6565,0,-3.6127,-3.6201,-3.6185,-3.6242,-3.6265,-3.6227,-3.6293,-3.6311,-3.6348,-3.6364,-3.6333,-3.6423,-3.6436,-3.6523,-3.6554,-3.6571,-3.6587,-3.6552,-3.6688,-3.6701,-3.6712,-3.6754,-3.6771,-3.657,-3.657,-3.6569,-3.6569,0,-3.6275,-3.6327,-3.6377,-3.6415,-3.6444,-3.6505,-3.6498,-3.6529,-3.6513,-3.6513,-3.6584,-3.6599,-3.6639,-3.6659,-3.6644,-3.6743,-3.6725,-3.6691,-3.6634,-3.6736,-3.6774,-3.679,-3.6577,-3.6575,-3.6574,-3.6573,0,0,-3.644,-3.6469,-3.6487,-3.6503,-3.6529,-3.6568,-3.6627,-3.6668,-3.6694,-3.6721,-3.6768,-3.6831,-3.68,-3.6821,-3.6807,-3.6849,-3.6947,-3.681,-3.681,-3.6833,-3.7055,-3.7079,-3.7098,-3.6929,-3.6932,-3.6934,-3.7052,0,-3.6561,-3.6664,-3.6652,-3.675,-3.6796,-3.676,-3.6811,-3.6832,-3.6833,-3.6871,-3.6872,-3.6916,-3.6873,-3.6885,-3.6925,-3.6927,-3.6991,-3.6918,-3.6971,-3.6973,-3.6964,-3.7118,-3.7144,-3.7255,-3.7068,-3.707,-3.7072,0,-3.6716,-3.6749,-3.6852,-3.687,-3.6888,-3.6935,-3.697,-3.7008,-3.703,-3.7028,-3.7052,-3.7031,-3.7088,-3.7031,-3.7109,-3.706,-3.708,-3.7084,-3.7088,-3.7091,-3.7027,-3.7123,-3.729,-3.7306,-3.7096,-3.7094,-3.7092,0,-3.6823,-3.6894,-3.6964,-3.6979,-3.7002,-3.7035,-3.7046,-3.7065,-3.709,-3.712,-3.7136,-3.7173,-3.7192,-3.722,-3.7209,-3.7169,-3.7288,-3.7231,-3.7287,-3.7287,-3.7312,-3.731,-3.7482,-3.7329,-3.7329,-3.7328,-3.7328,0,-3.6959,-3.7022,-3.7013,-3.7056,-3.7126,-3.711,-3.718,-3.7186,-3.7203,-3.7245,-3.7216,-3.7256,-3.724,-3.7279,-3.727,-3.7335,-3.7344,-3.7343,-3.7339,-3.7345,-3.7344,-3.7356,-3.7348,-3.7333,-3.7332,-3.7331,-3.733,0,-3.709,-3.7087,-3.7161,-3.7176,-3.7182,-3.7233,-3.7245,-3.7285,-3.7284,-3.7338,-3.735,-3.7348,-3.7392,-3.7384,-3.7433,-3.7427,-3.7507,-3.7495,-3.75,-3.7496,-3.7551,-3.7546,-3.7736,-3.7759,-3.7592,-3.7594,-3.7595,0,-3.7176,-3.7224,-3.7245,-3.7272,-3.7286,-3.7329,-3.7354,-3.7341,-3.7368,-3.7396,-3.7432,-3.7473,-3.7506,-3.7577,-3.758,-3.7616,-3.7603,-3.7668,-3.7609,-3.7612,-3.7602,-3.7598,-3.7602,-3.7679,-3.7681,-3.7682,-3.7684,0,-3.7327,-3.7323,-3.7361,-3.7398,-3.7429,-3.7458,-3.7483,-3.7506,-3.7495,-3.7526,-3.7571,-3.7597,-3.7646,-3.7687,-3.7721,-3.773,-3.7704,-3.7702,-3.7717,-3.7721,-3.7721,-3.772,-3.753,-3.7698,-3.7696,-3.7695,-3.7694,-3.7694,-3.7437,-3.7478,-3.7499,-3.7542,-3.7559,-3.7584,-3.7621,-3.7626,-3.7663,-3.7703,-3.7692,-3.7743,-3.7762,-3.7805,-3.7819,-3.7857,-3.7833,-3.7854,-3.7859,-3.7864,-3.787,-3.7717,-3.7863,-3.7863,-3.7862,-3.7862,-3.7862,0,-3.7585,-3.7597,-3.7637,-3.7673,-3.7707,-3.7681,-3.7708,-3.7737,-3.7782,-3.7803,-3.7836,-3.7886,-3.7926,-3.7931,-3.7968,-3.7997,-3.7986,-3.8007,-3.8004,-3.8006,-3.789,-3.7873,-3.8016,-3.8016,-3.8016,-3.8016,-3.8015,-3.8015,-3.7666,-3.7733,-3.7731,-3.7806,-3.7817,-3.7867,-3.7884,-3.7906,-3.7922,-3.7981,-3.8014,-3.8017,-3.8031,-3.8069,-3.8103,-3.8104,-3.8118,-3.8143,-3.8139,-3.803,-3.8015,-3.8,-3.7984,-3.8147,-3.8147,-3.8251,-3.8252,-3.8253]}]]